Terminal Aerodrome Forecast
Issued by NWS

Home | Current Version | Previous Version | Graphics & Text | Print | Product List | Glossary On
Versions: 1 2 3 4 5 6 7 8 9 10 11 12 13 14 15 16 17 18 19 20 21 22 23 24 25 26 27 28 29 30 31 32 33 34 35 36 37 38 39 40 41 42 43 44 45 46 47 48 49 50
000
FTUS43 KLOT 181300 AAA
TAFGYY
TAF AMD
KGYY 181401Z 1814/1912 32011G16KT P6SM OVC025
     FM181430 34015G22KT 5SM -RA BKN024 OVC035
     FM181900 35012G17KT P6SM BKN035
     FM182300 36009KT P6SM SCT040
     FM190400 VRB03KT P6SM FEW250=

USA.gov is the U.S. government's official web portal to all federal, state and local government web resources and services.